Date String (YYYY-MM-DD hh:mm:ss) UTC,Instrument flags,Ambient pressure (hPa),Sample flow (lpm),Bypass flow (lpm),Sample temperature (°C),Ambient temperature (°C),ASC tube jacket temperature (°C),LED temperature (°C),Box temperature (°C),Sample RH (%),Span deviation,Mass concentration (μg/m³),Mass concentration (μg/m³),Mass concentration (μg/m³)
DateTimeUTC,F1_M11,P_M11,Q1_M11,Q2_M11,T1_M11,T2_M11,T3_M11,T4_M11,T5_M11,U1_M11,ZSPAN_M11,X0_M11,X2_M11,X1_M11
2021-11-20 21:00:00,,0826.8,5.01,0.00,26.0,25.4,00.0,35.1,27.9,11.8,0000.0,0015.94,0004.66,0003.33
2021-11-20 21:01:00,,0826.9,5.01,0.00,26.0,25.4,00.0,35.1,27.9,11.8,0000.0,0016.06,0004.73,0003.37
2021-11-20 21:02:00,,0827.0,4.98,0.00,26.0,25.4,00.0,35.1,27.9,11.8,0000.0,0016.20,0004.79,0003.41
2021-11-20 21:03:00,,0827.1,5.02,0.00,26.1,25.4,00.0,35.1,27.9,11.8,0000.0,0016.69,0004.79,0003.45
2021-11-20 21:04:00,,0827.2,4.98,0.00,26.1,25.4,00.0,35.1,27.9,11.8,0000.0,0018.39,0004.79,0003.47
2021-11-20 21:05:00,,0827.0,5.01,0.00,26.1,25.5,00.0,35.1,27.9,11.8,0000.0,0019.06,0004.81,0003.51
2021-11-20 21:06:00,,0826.9,4.99,0.00,26.1,25.5,00.0,35.1,27.9,11.8,0000.0,0018.92,0004.88,0003.56
2021-11-20 21:07:00,,0826.9,5.00,0.00,26.1,25.5,00.0,35.1,27.9,11.8,0000.0,0019.24,0004.98,0003.61
2021-11-20 21:08:00,,0826.9,4.99,0.00,26.1,25.5,00.0,35.1,27.9,11.8,0000.0,0017.67,0005.06,0003.64
2021-11-20 21:09:00,,0827.0,5.01,0.00,26.1,25.5,00.0,35.1,28.0,11.8,0000.0,0018.35,0005.09,0003.66
2021-11-20 21:10:00,,0826.9,4.99,0.00,26.1,25.5,00.0,35.1,28.0,11.8,0000.0,0020.50,0005.12,0003.68
2021-11-20 21:11:00,,0826.9,4.99,0.00,26.1,25.6,00.0,35.1,28.0,11.8,0000.0,0020.61,0005.08,0003.70
2021-11-20 21:12:00,,0826.9,5.01,0.00,26.2,25.6,00.0,35.1,28.0,11.7,0000.0,0020.20,0005.05,0003.70
2021-11-20 21:13:00,,0826.9,4.99,0.00,26.2,25.6,00.0,35.1,28.0,11.7,0000.0,0020.21,0005.09,0003.71
2021-11-20 21:14:00,,0826.9,5.00,0.00,26.2,25.6,00.0,35.1,28.0,11.8,0000.0,0020.71,0005.20,0003.72
2021-11-20 21:15:00,,0826.9,5.00,0.00,26.2,25.6,00.0,35.1,28.0,11.8,0000.0,0019.71,0005.31,0003.72
2021-11-20 21:16:00,,0827.1,4.99,0.00,26.2,25.6,00.0,35.1,28.1,11.8,0000.0,0018.73,0005.33,0003.72
2021-11-20 21:17:00,,0827.0,5.01,0.00,26.2,25.6,00.0,35.2,28.1,11.7,0000.0,0019.46,0005.40,0003.70
2021-11-20 21:18:00,,0827.0,5.00,0.00,26.2,25.6,00.0,35.2,28.1,11.8,0000.0,0019.69,0005.40,0003.69
2021-11-20 21:19:00,,0827.2,5.00,0.00,26.2,25.6,00.0,35.2,28.1,11.8,0000.0,0019.51,0005.33,0003.68
2021-11-20 21:20:00,,0827.1,5.01,0.00,26.2,25.6,00.0,35.2,28.1,11.7,0000.0,0019.78,0005.34,0003.69
2021-11-20 21:21:00,,0827.2,4.99,0.00,26.2,25.7,00.0,35.2,28.1,11.7,0000.0,0018.67,0005.39,0003.69
2021-11-20 21:22:00,,0827.2,5.01,0.00,26.2,25.7,00.0,35.2,28.1,11.7,0000.0,0019.56,0005.44,0003.68
2021-11-20 21:23:00,,0827.2,5.00,0.00,26.3,25.7,00.0,35.2,28.1,11.7,0000.0,0020.03,0005.48,0003.68
2021-11-20 21:24:00,,0827.3,4.99,0.00,26.3,25.7,00.0,35.2,28.1,11.7,0000.0,0019.87,0005.49,0003.68
2021-11-20 21:25:00,,0827.4,5.00,0.00,26.3,25.7,00.0,35.2,28.1,11.7,0000.0,0020.13,0005.51,0003.68
2021-11-20 21:26:00,,0827.5,5.00,0.00,26.3,25.7,00.0,35.2,28.2,11.8,0000.0,0020.51,0005.48,0003.68
2021-11-20 21:27:00,,0827.6,4.98,0.00,26.3,25.7,00.0,35.2,28.2,11.8,0000.0,0021.29,0005.49,0003.68
2021-11-20 21:28:00,,0827.7,5.02,0.00,26.3,25.7,00.0,35.3,28.2,11.8,0000.0,0020.65,0005.47,0003.68
2021-11-20 21:29:00,,0827.6,4.99,0.00,26.4,25.8,00.0,35.3,28.2,11.8,0000.0,0020.72,0005.49,0003.68
2021-11-20 21:30:00,,0827.7,5.00,0.00,26.4,25.8,00.0,35.3,28.2,11.8,0000.0,0021.18,0005.55,0003.68
2021-11-20 21:31:00,,0827.7,5.01,0.00,26.4,25.8,00.0,35.3,28.3,11.8,0000.0,0021.93,0005.63,0003.68
2021-11-20 21:32:00,,0827.7,4.99,0.00,26.4,25.8,00.0,35.3,28.3,11.8,0000.0,0022.71,0005.64,0003.67
2021-11-20 21:33:00,,0827.7,5.00,0.00,26.4,25.8,00.0,35.3,28.3,11.8,0000.0,0021.58,0005.58,0003.66
2021-11-20 21:34:00,,0827.8,5.00,0.00,26.4,25.8,00.0,35.3,28.3,11.8,0000.0,0022.13,0005.56,0003.64
2021-11-20 21:35:00,,0827.8,5.01,0.00,26.4,25.8,00.0,35.3,28.3,11.7,0000.0,0022.84,0005.51,0003.64
2021-11-20 21:36:00,,0827.8,5.00,0.00,26.5,25.8,00.0,35.4,28.3,11.7,0000.0,0023.27,0005.52,0003.64
2021-11-20 21:37:00,,0827.8,4.98,0.00,26.5,25.8,00.0,35.4,28.3,11.6,0000.0,0023.53,0005.54,0003.64
2021-11-20 21:38:00,,0827.8,5.01,0.00,26.5,25.9,00.0,35.4,28.3,11.6,0000.0,0022.93,0005.52,0003.66
2021-11-20 21:39:00,,0827.8,4.99,0.00,26.5,25.9,00.0,35.4,28.4,11.6,0000.0,0023.36,0005.51,0003.67
2021-11-20 21:40:00,,0827.8,5.01,0.00,26.5,25.9,00.0,35.4,28.4,11.6,0000.0,0022.99,0005.44,0003.68
2021-11-20 21:41:00,,0827.8,4.99,0.00,26.5,25.9,00.0,35.4,28.4,11.6,0000.0,0022.15,0005.45,0003.69
2021-11-20 21:42:00,,0827.8,5.02,0.00,26.5,25.9,00.0,35.4,28.4,11.6,0000.0,0021.25,0005.41,0003.69
2021-11-20 21:43:00,,0827.7,4.99,0.00,26.5,25.9,00.0,35.4,28.3,11.6,0000.0,0021.01,0005.42,0003.70
2021-11-20 21:44:00,,0827.7,5.01,0.00,26.5,25.9,00.0,35.4,28.3,11.6,0000.0,0020.68,0005.47,0003.72
2021-11-20 21:45:00,,0827.7,4.99,0.00,26.5,25.9,00.0,35.4,28.3,11.6,0000.7,0019.90,0005.51,0003.74
2021-11-20 21:46:00,,0827.8,5.01,0.00,26.5,25.8,00.0,35.4,28.3,11.6,0000.1,0019.82,0005.58,0003.76
2021-11-20 21:47:00,,0827.7,5.00,0.00,26.5,25.8,00.0,35.4,28.2,11.7,0000.0,0019.77,0005.58,0003.76
2021-11-20 21:48:00,,0827.7,4.99,0.00,26.4,25.8,00.0,35.4,28.2,11.7,0000.0,0018.61,0005.54,0003.75
2021-11-20 21:49:00,,0827.7,5.01,0.00,26.4,25.7,00.0,35.4,28.2,11.7,0000.0,0018.83,0005.53,0003.75
2021-11-20 21:50:00,,0827.7,4.99,0.00,26.4,25.7,00.0,35.4,28.2,11.7,0000.0,0019.05,0005.52,0003.75
2021-11-20 21:51:00,,0827.7,5.01,0.00,26.4,25.7,00.0,35.4,28.2,11.7,0000.0,0019.02,0005.57,0003.75
2021-11-20 21:52:00,,0827.7,5.00,0.00,26.4,25.7,00.0,35.4,28.2,12.0,0000.0,0019.84,0005.57,0003.75
2021-11-20 21:53:00,,0827.7,5.00,0.00,26.4,25.7,00.0,35.4,28.2,12.4,0000.0,0020.65,0005.54,0003.75
2021-11-20 21:54:00,,0827.7,5.00,0.00,26.4,25.7,00.0,35.4,28.2,12.3,0000.0,0020.09,0005.56,0003.77
2021-11-20 21:55:00,,0827.8,4.99,0.00,26.4,25.7,00.0,35.4,28.2,13.4,0000.0,0020.22,0005.50,0003.75
2021-11-20 21:56:00,,0827.7,4.99,0.00,26.4,25.7,00.0,35.4,28.1,13.9,0000.0,0020.47,0005.43,0003.70
2021-11-20 21:57:00,,0827.7,5.00,0.00,26.4,25.7,00.0,35.4,28.1,14.6,0000.0,0020.44,0005.33,0003.65
2021-11-20 21:58:00,,0827.7,5.00,0.00,26.3,25.6,00.0,35.4,28.1,15.4,0000.0,0020.11,0005.12,0003.59
2021-11-20 21:59:00,,0827.7,5.01,0.00,26.3,25.5,00.0,35.4,28.0,15.7,0000.0,0019.71,0005.01,0003.51
